Date String (YYYY-MM-DD hh:mm:ss) UTC,Instrument flags,absolute air pressure of the measurement (hPa),sample flow rate (lpm),inlet stack bypass flow (lpm),air temperature of the measurement (°C),ambient temperature measured by the external sensor (°C),aerosol sample conditioner tube jacket temperature (°C),OPC LED temperature (°C),internal box temperature (°C),relative humidity of the measurement (%),span deviation,mass concentration of particles derived from Lorenz-Mie calculation of OPC scattering (μg/m³),mass concentration of particles derived from Lorenz-Mie calculation of OPC scattering (μg/m³),mass concentration of particles derived from Lorenz-Mie calculation of OPC scattering (μg/m³)
DateTimeUTC,F1_M11,P_M11,Q1_M11,Q2_M11,T1_M11,T2_M11,T3_M11,T4_M11,T5_M11,U1_M11,ZSPAN_M11,X0_M11,X2_M11,X1_M11
2024-04-12 13:00:00,SystemResetWarning,0830.2,4.98,000.00,022.9,022.2,000.0,031.5,024.8,013.2,0000.0,0015.29,0005.40,0003.05
2024-04-12 13:01:00,SystemResetWarning,0830.2,5.01,000.00,022.9,022.2,000.0,031.5,024.8,013.1,0000.0,0015.32,0005.46,0003.06
2024-04-12 13:02:00,SystemResetWarning,0830.2,5.01,000.00,022.9,022.1,000.0,031.5,024.8,013.1,0000.0,0014.56,0005.53,0003.07
2024-04-12 13:03:00,SystemResetWarning,0830.2,5.00,000.00,022.9,022.1,000.0,031.5,024.8,013.2,0000.0,0014.46,0005.57,0003.07
2024-04-12 13:04:00,SystemResetWarning,0830.3,5.00,000.00,022.9,022.1,000.0,031.5,024.7,013.6,0000.0,0014.42,0005.54,0003.04
2024-04-12 13:05:00,SystemResetWarning,0830.3,5.00,000.00,022.9,022.1,000.0,031.5,024.7,013.8,0000.0,0014.81,0005.56,0003.01
2024-04-12 13:06:00,SystemResetWarning,0830.2,5.00,000.00,022.9,022.0,000.0,031.5,024.7,013.6,0000.0,0015.53,0005.57,0003.02
2024-04-12 13:07:00,SystemResetWarning,0830.2,4.99,000.00,022.8,022.0,000.0,031.5,024.6,013.5,0000.0,0014.45,0005.49,0003.03
2024-04-12 13:08:00,SystemResetWarning,0830.2,5.00,000.00,022.8,022.0,000.0,031.5,024.6,013.6,0000.0,0015.48,0005.61,0003.04
2024-04-12 13:09:00,SystemResetWarning,0830.3,5.00,000.00,022.8,021.9,000.0,031.4,024.6,013.8,0000.0,0016.26,0005.65,0003.04
2024-04-12 13:10:00,SystemResetWarning,0830.3,5.00,000.00,022.8,021.9,000.0,031.4,024.6,014.0,0000.0,0016.20,0005.61,0003.04
2024-04-12 13:11:00,SystemResetWarning,0830.3,5.00,000.00,022.8,021.9,000.0,031.4,024.6,014.1,0000.0,0017.00,0005.61,0003.08
2024-04-12 13:12:00,SystemResetWarning,0830.2,5.00,000.00,022.7,021.9,000.0,031.4,024.5,014.2,0000.0,0017.39,0005.64,0003.10
2024-04-12 13:13:00,SystemResetWarning,0830.2,5.00,000.00,022.7,021.8,000.0,031.4,024.5,014.4,0000.0,0017.03,0005.57,0003.12
2024-04-12 13:14:00,SystemResetWarning,0830.2,5.00,000.00,022.7,021.8,000.0,031.4,024.5,014.5,0000.0,0017.32,0005.54,0003.14
2024-04-12 13:15:00,SystemResetWarning,0830.3,5.00,000.00,022.7,021.9,000.0,031.4,024.6,014.5,0000.0,0017.46,0005.55,0003.19
2024-04-12 13:16:00,SystemResetWarning,0830.4,4.99,000.00,022.7,021.9,000.0,031.3,024.6,014.5,0000.0,0016.92,0005.58,0003.26
2024-04-12 13:17:00,SystemResetWarning,0830.4,5.00,000.00,022.7,021.9,000.0,031.3,024.6,014.6,0000.0,0016.17,0005.58,0003.31
2024-04-12 13:18:00,SystemResetWarning,0830.3,4.99,000.00,022.7,021.9,000.0,031.3,024.6,014.7,0000.0,0016.73,0005.68,0003.37
2024-04-12 13:19:00,SystemResetWarning,0830.3,5.01,000.00,022.7,021.9,000.0,031.3,024.6,014.7,0000.0,0016.01,0005.74,0003.45
2024-04-12 13:20:00,SystemResetWarning,0830.2,5.01,000.00,022.7,021.9,000.0,031.3,024.6,014.7,0000.0,0015.11,0005.67,0003.51
2024-04-12 13:21:00,SystemResetWarning,0830.3,5.00,000.00,022.7,021.9,000.0,031.3,024.5,014.8,0000.0,0015.35,0005.79,0003.58
2024-04-12 13:22:00,SystemResetWarning,0830.3,4.99,000.00,022.7,021.8,000.0,031.3,024.5,015.0,0000.0,0015.52,0005.88,0003.65
2024-04-12 13:23:00,SystemResetWarning,0830.3,4.99,000.00,022.7,021.8,000.0,031.3,024.5,015.0,0000.0,0016.46,0005.90,0003.73
2024-04-12 13:24:00,SystemResetWarning,0830.4,5.01,000.00,022.6,021.8,000.0,031.3,024.4,015.1,0000.0,0017.48,0006.06,0003.81
2024-04-12 13:25:00,SystemResetWarning,0830.4,5.01,000.00,022.6,021.8,000.0,031.3,024.4,015.1,0000.0,0018.77,0006.25,0003.89
2024-04-12 13:26:00,SystemResetWarning,0830.3,5.00,000.00,022.6,021.8,000.0,031.2,024.4,015.0,0000.0,0019.24,0006.40,0003.94
2024-04-12 13:27:00,SystemResetWarning,0830.3,5.01,000.00,022.6,021.8,000.0,031.2,024.4,015.0,0000.0,0019.35,0006.42,0003.97
2024-04-12 13:28:00,SystemResetWarning,0830.3,5.00,000.00,022.6,021.7,000.0,031.2,024.4,014.9,0000.0,0019.97,0006.43,0004.01
2024-04-12 13:29:00,SystemResetWarning,0830.3,5.00,000.00,022.6,021.7,000.0,031.2,024.4,014.8,0000.0,0019.97,0006.46,0004.05
2024-04-12 13:30:00,SystemResetWarning,0830.3,4.99,000.00,022.6,021.7,000.0,031.2,024.4,014.7,0000.0,0020.36,0006.49,0004.07
2024-04-12 13:31:00,SystemResetWarning,0830.2,4.99,000.00,022.6,021.7,000.0,031.2,024.4,014.8,0000.0,0021.29,0006.58,0004.09
2024-04-12 13:32:00,SystemResetWarning,0830.2,4.99,000.00,022.5,021.7,000.0,031.2,024.4,014.5,0000.0,0021.26,0006.56,0004.09
2024-04-12 13:33:00,SystemResetWarning,0830.2,5.00,000.00,022.5,021.7,000.0,031.2,024.4,014.6,0000.0,0021.01,0006.56,0004.07
2024-04-12 13:34:00,SystemResetWarning,0830.2,5.00,000.00,022.5,021.7,000.0,031.1,024.3,014.7,0000.0,0019.89,0006.53,0004.04
2024-04-12 13:35:00,SystemResetWarning,0830.2,5.01,000.00,022.5,021.7,000.0,031.1,024.3,015.1,0000.0,0019.33,0006.47,0003.99
2024-04-12 13:36:00,SystemResetWarning,0830.2,5.01,000.00,022.5,021.6,000.0,031.1,024.3,014.9,0000.0,0017.75,0006.33,0003.92
2024-04-12 13:37:00,SystemResetWarning,0830.2,4.99,000.00,022.5,021.7,000.0,031.1,024.3,014.5,0000.0,0017.27,0006.19,0003.86
2024-04-12 13:38:00,SystemResetWarning,0830.2,4.99,000.00,022.5,021.7,000.0,031.1,024.3,014.6,0000.0,0017.56,0006.12,0003.80
2024-04-12 13:39:00,SystemResetWarning,0830.3,5.00,000.00,022.5,021.7,000.0,031.1,024.3,014.5,0000.0,0017.29,0006.05,0003.73
2024-04-12 13:40:00,SystemResetWarning,0830.3,5.01,000.00,022.5,021.7,000.0,031.1,024.3,014.7,0000.0,0017.89,0006.02,0003.66
2024-04-12 13:41:00,SystemResetWarning,0830.3,5.01,000.00,022.5,021.7,000.0,031.1,024.4,015.0,0000.0,0018.23,0005.92,0003.59
2024-04-12 13:42:00,SystemResetWarning,0830.3,4.99,000.00,022.5,021.8,000.0,031.1,024.4,014.7,0000.0,0017.34,0005.84,0003.55
2024-04-12 13:43:00,SystemResetWarning,0830.3,4.99,000.00,022.5,021.8,000.0,031.1,024.4,014.7,0000.0,0017.43,0005.81,0003.51
2024-04-12 13:44:00,SystemResetWarning,0830.3,4.99,000.00,022.5,021.8,000.0,031.1,024.4,014.7,0000.0,0016.98,0005.76,0003.46
2024-04-12 13:45:00,SystemResetWarning,0830.3,5.00,000.00,022.5,021.8,000.0,031.0,024.4,015.2,0000.0,0017.52,0005.81,0003.43
2024-04-12 13:46:00,SystemResetWarning,0830.3,5.00,000.00,022.5,021.9,000.0,031.0,024.4,015.3,0000.0,0017.45,0005.75,0003.41
2024-04-12 13:47:00,SystemResetWarning,0830.3,5.00,000.00,022.5,021.8,000.0,031.0,024.4,015.0,0000.0,0018.34,0005.77,0003.39
2024-04-12 13:48:00,SystemResetWarning,0830.3,5.00,000.00,022.5,021.8,000.0,031.0,024.4,015.0,0000.0,0018.57,0005.79,0003.39
2024-04-12 13:49:00,SystemResetWarning,0830.2,5.00,000.00,022.5,021.8,000.0,031.0,024.4,014.7,0000.0,0018.07,0005.80,0003.39
2024-04-12 13:50:00,SystemResetWarning,0830.3,5.00,000.00,022.5,021.8,000.0,031.1,024.4,014.7,0000.0,0017.66,0005.85,0003.39
2024-04-12 13:51:00,SystemResetWarning,0830.3,5.00,000.00,022.5,021.8,000.0,031.0,024.4,014.3,0000.0,0016.63,0005.79,0003.40
2024-04-12 13:52:00,SystemResetWarning,0830.3,4.99,000.00,022.5,021.8,000.0,031.0,024.4,014.7,0000.0,0015.41,0005.67,0003.39
2024-04-12 13:53:00,SystemResetWarning,0830.3,4.99,000.00,022.5,021.8,000.0,031.0,024.4,014.6,0000.0,0015.46,0005.65,0003.38
2024-04-12 13:54:00,SystemResetWarning,0830.3,5.00,000.00,022.5,021.8,000.0,031.0,024.3,014.7,0000.0,0015.07,0005.58,0003.36
2024-04-12 13:55:00,SystemResetWarning,0830.3,5.00,000.00,022.5,021.8,000.0,031.0,024.3,014.5,0000.0,0015.31,0005.56,0003.36
2024-04-12 13:56:00,SystemResetWarning,0830.3,5.00,000.00,022.5,021.8,000.0,031.0,024.4,014.6,0000.0,0014.82,0005.47,0003.36
2024-04-12 13:57:00,SystemResetWarning,0830.3,5.00,000.00,022.5,021.8,000.0,031.0,024.4,014.4,0000.0,0014.81,0005.44,0003.34
2024-04-12 13:58:00,SystemResetWarning,0830.3,5.00,000.00,022.5,021.8,000.0,031.0,024.4,013.9,0000.0,0014.04,0005.37,0003.31
2024-04-12 13:59:00,SystemResetWarning,0830.3,5.00,000.00,022.5,021.9,000.0,031.0,024.4,013.8,0000.0,0013.75,0005.38,0003.30
